Tracking 20628 objects as of 5-Apr-2020
HD Live streaming from Space Station
objects crossing your sky now

PEGASUS DEB

Track PEGASUS DEB now!
10-day predictions


NORAD ID: 39320
Int'l Code: 1994-029AFF
Perigee: 597.9 km
Apogee: 1,046.4 km
Inclination: 81.8 °
Period: 101.2 minutes
Semi major axis: 7193 km
RCS: 0.0137 m2 (small)
Launch date: May 19, 1994
Source: United States (US)
Launch site: AIR FORCE WESTERN TEST RANGE (AFWTR)

Note: This is SATELLITE DEBRIS
aabbcc
Your satellite tracking list
Your tracking list is empty




NASA's NSSDC Master Catalog

Two Line Element Set (TLE):
1 39320U 94029AFF 20095.64758066 +.00000211 +00000-0 +52354-4 0  9996
2 39320 081.7613 069.3163 0311777 220.9521 136.7868 14.23060593404404
Source of the keplerian elements: AFSPC